Regional Weather Roundup
Issued by NWS Goodland, KS

Home | Current Version | Previous Version | Graphics & Text | Print | Product List | Glossary On
Versions: 1 2 3 4 5 6 7 8 9 10 11 12 13 14 15 16 17 18 19 20 21 22 23 24 25 26 27 28 29 30 31 32 33 34 35 36 37 38 39 40 41 42 43 44 45 46 47 48 49 50
000
ASUS43 KGLD 301259
RWRGLD

GOODLAND FORECAST AREA HOURLY WEATHER ROUNDUP
NATIONAL WEATHER SERVICE GOODLAND KS
700 AM MDT SUN APR 30 2017

...OFFICIAL OBSERVATIONS...

CITY           SKY/WX    TMP DP  RH WIND       PRES   REMARKS
GOODLAND KS    FOG       32  29  88 N37G54    29.69R VSB 3/4 WCI  16
HILL CITY KS   HVY RAIN  34  33  96 N24G38    29.61R VSB 1
IMPERIAL NEB   CLOUDY    37  24  59 N30       29.82F
MCCOOK NEB     SNOW      33  32  96 N31G41    29.69F VSB 1/2 WCI  19
AKRON CO       CLOUDY    32  22  66 N22G31    29.91F WCI  19
BURLINGTON CO  NOT AVBL
LIMON CO       CLOUDY    29  22  75 N29G43    29.87F WCI  14
$$

...UNOFFICIAL OBSERVATIONS...

CITY           SKY/WX    TMP DP  RH WIND       PRES   REMARKS
LENORA KS        N/A     32  32 100 MISG        N/A
SHARON SPRINGS   N/A     31  31  99 N13G20      N/A
TRENTON NEB      N/A     37  32  82 N17G24      N/A
KIT CARSON CO    N/A     34  24  67 CALM        N/A
YUMA CO        CLOUDY    32  23  69 N24G31    29.87F WCI  19
$$



USA.gov is the U.S. government's official web portal to all federal, state and local government web resources and services.